Year,Month,Day,Hour,Minute,Value (Times are PST for temperature in C)
2008,04,26,00,00,5.20
2008,04,26,00,01,5.20
2008,04,26,00,02,5.20
2008,04,26,00,03,5.20
2008,04,26,00,04,5.20
2008,04,26,00,05,5.20
2008,04,26,00,06,5.10
2008,04,26,00,07,5.10
2008,04,26,00,08,5.10
2008,04,26,00,09,5.10
2008,04,26,00,10,5.10
2008,04,26,00,11,5.10
2008,04,26,00,12,5.10
2008,04,26,00,13,5.10
2008,04,26,00,14,5.10
2008,04,26,00,15,4.90
2008,04,26,00,16,4.90
2008,04,26,00,17,4.90
2008,04,26,00,18,4.90
2008,04,26,00,19,4.90
2008,04,26,00,20,4.80
2008,04,26,00,21,4.80
2008,04,26,00,22,4.70
2008,04,26,00,23,4.70
2008,04,26,00,24,4.70
2008,04,26,00,25,4.70
2008,04,26,00,26,4.70
2008,04,26,00,27,4.60
2008,04,26,00,28,4.60
2008,04,26,00,29,4.60
2008,04,26,00,30,4.60
2008,04,26,00,31,4.50
2008,04,26,00,32,4.50
2008,04,26,00,33,4.50
2008,04,26,00,34,4.50
2008,04,26,00,35,4.50
2008,04,26,00,36,4.50
2008,04,26,00,37,4.50
2008,04,26,00,38,4.50
2008,04,26,00,39,4.50
2008,04,26,00,40,4.50
2008,04,26,00,41,4.40
2008,04,26,00,42,4.40
2008,04,26,00,43,4.30
2008,04,26,00,44,4.30
2008,04,26,00,45,4.20
2008,04,26,00,46,4.20
2008,04,26,00,47,4.20
2008,04,26,00,48,4.20
2008,04,26,00,49,4.10
2008,04,26,00,50,4.10
2008,04,26,00,51,4.10
2008,04,26,00,52,4.10
2008,04,26,00,53,4.20
2008,04,26,00,54,4.20
2008,04,26,00,55,4.20
2008,04,26,00,56,4.20
2008,04,26,00,57,4.20
2008,04,26,00,58,4.20
2008,04,26,00,59,4.20
2008,04,26,01,00,4.20
2008,04,26,01,01,4.20
2008,04,26,01,02,4.20
2008,04,26,01,03,4.20
2008,04,26,01,04,4.20
2008,04,26,01,05,4.20
2008,04,26,01,06,4.20
2008,04,26,01,07,4.10
2008,04,26,01,08,4.10
2008,04,26,01,09,4.10
2008,04,26,01,10,4.10
2008,04,26,01,11,4.00
2008,04,26,01,12,4.00
2008,04,26,01,13,4.00
2008,04,26,01,14,4.00
2008,04,26,01,15,4.00
2008,04,26,01,16,3.90
2008,04,26,01,17,3.90
2008,04,26,01,18,3.90
2008,04,26,01,19,4.00
2008,04,26,01,20,4.00
2008,04,26,01,21,4.00
2008,04,26,01,22,4.00
2008,04,26,01,23,4.00
2008,04,26,01,24,4.00
2008,04,26,01,25,4.00
2008,04,26,01,26,4.00
2008,04,26,01,27,4.00
2008,04,26,01,28,4.00
2008,04,26,01,29,4.00
2008,04,26,01,30,4.00
2008,04,26,01,31,4.00
2008,04,26,01,32,3.90
2008,04,26,01,33,3.90
2008,04,26,01,34,4.00
2008,04,26,01,35,4.00
2008,04,26,01,36,4.00
2008,04,26,01,37,4.00
2008,04,26,01,38,4.00
2008,04,26,01,39,4.00
2008,04,26,01,40,4.00
2008,04,26,01,41,4.00
2008,04,26,01,42,4.00
2008,04,26,01,43,4.00
2008,04,26,01,44,4.00
2008,04,26,01,45,4.00
2008,04,26,01,46,4.00
2008,04,26,01,47,4.00
2008,04,26,01,48,4.10
2008,04,26,01,49,4.10
2008,04,26,01,50,4.10
2008,04,26,01,51,4.20
2008,04,26,01,52,4.20
2008,04,26,01,53,4.20
2008,04,26,01,54,4.20
2008,04,26,01,55,4.30
2008,04,26,01,56,4.30
2008,04,26,01,57,4.40
2008,04,26,01,58,4.40
2008,04,26,01,59,4.40
2008,04,26,02,00,4.40
2008,04,26,02,01,4.30
2008,04,26,02,02,4.30
2008,04,26,02,03,4.30
2008,04,26,02,04,4.20
2008,04,26,02,05,4.20
2008,04,26,02,06,4.20
2008,04,26,02,07,4.20
2008,04,26,02,08,4.10
2008,04,26,02,09,4.10
2008,04,26,02,10,4.10
2008,04,26,02,11,4.10
2008,04,26,02,12,4.10
2008,04,26,02,13,4.00
2008,04,26,02,14,4.10
2008,04,26,02,15,4.10
2008,04,26,02,16,4.10
2008,04,26,02,17,4.10
2008,04,26,02,18,4.20
2008,04,26,02,19,4.20
2008,04,26,02,20,4.20
2008,04,26,02,21,4.20
2008,04,26,02,22,4.30
2008,04,26,02,23,4.30
2008,04,26,02,24,4.30
2008,04,26,02,25,4.30
2008,04,26,02,26,4.30
2008,04,26,02,27,4.20
2008,04,26,02,28,4.20
2008,04,26,02,29,4.20
2008,04,26,02,30,4.20
2008,04,26,02,31,4.10
2008,04,26,02,32,4.10
2008,04,26,02,33,4.10
2008,04,26,02,34,4.00
2008,04,26,02,35,4.00
2008,04,26,02,36,4.00
2008,04,26,02,37,4.00
2008,04,26,02,38,3.90
2008,04,26,02,39,4.00
2008,04,26,02,40,4.00
2008,04,26,02,41,4.00
2008,04,26,02,42,4.00
2008,04,26,02,43,4.00
2008,04,26,02,44,4.00
2008,04,26,02,45,4.00
2008,04,26,02,46,4.10
2008,04,26,02,47,4.10
2008,04,26,02,48,4.10
2008,04,26,02,49,4.10
2008,04,26,02,50,4.10
2008,04,26,02,51,4.10
2008,04,26,02,52,4.10
2008,04,26,02,53,4.10
2008,04,26,02,54,4.10
2008,04,26,02,55,4.10
2008,04,26,02,56,4.10
2008,04,26,02,57,4.10
2008,04,26,02,58,4.10
2008,04,26,02,59,4.00
2008,04,26,03,00,4.00
2008,04,26,03,01,4.00
2008,04,26,03,02,4.00
2008,04,26,03,03,4.00
2008,04,26,03,04,4.00
2008,04,26,03,05,4.00
2008,04,26,03,06,3.90
2008,04,26,03,07,3.90
2008,04,26,03,08,3.90
2008,04,26,03,09,3.90
2008,04,26,03,10,3.90
2008,04,26,03,11,4.00
2008,04,26,03,12,4.00
2008,04,26,03,13,4.00
2008,04,26,03,14,4.00
2008,04,26,03,15,4.00
2008,04,26,03,16,4.10
2008,04,26,03,17,4.10
2008,04,26,03,18,4.10
2008,04,26,03,19,4.10
2008,04,26,03,20,4.20
2008,04,26,03,21,4.20
2008,04,26,03,22,4.20
2008,04,26,03,23,4.20
2008,04,26,03,24,4.20
2008,04,26,03,25,4.20
2008,04,26,03,26,4.20
2008,04,26,03,27,4.20
2008,04,26,03,28,4.20
2008,04,26,03,29,4.20
2008,04,26,03,30,4.20
2008,04,26,03,31,4.20
2008,04,26,03,32,4.20
2008,04,26,03,33,4.20
2008,04,26,03,34,4.20
2008,04,26,03,35,4.20
2008,04,26,03,36,4.20
2008,04,26,03,37,4.20
2008,04,26,03,38,4.20
2008,04,26,03,39,4.20
2008,04,26,03,40,4.20
2008,04,26,03,41,4.20
2008,04,26,03,42,4.10
2008,04,26,03,43,4.10
2008,04,26,03,44,4.10
2008,04,26,03,45,4.10
2008,04,26,03,46,4.10
2008,04,26,03,47,4.10
2008,04,26,03,48,4.10
2008,04,26,03,49,4.10
2008,04,26,03,50,4.10
2008,04,26,03,51,4.20
2008,04,26,03,52,4.20
2008,04,26,03,53,4.20
2008,04,26,03,54,4.30
2008,04,26,03,55,4.30
2008,04,26,03,56,4.30
2008,04,26,03,57,4.30
2008,04,26,03,58,4.30
2008,04,26,03,59,4.30
2008,04,26,04,00,4.40
2008,04,26,04,01,4.40
2008,04,26,04,02,4.40
2008,04,26,04,03,4.30
2008,04,26,04,04,4.30
2008,04,26,04,05,4.20
2008,04,26,04,06,4.20
2008,04,26,04,07,4.10
2008,04,26,04,08,4.00
2008,04,26,04,09,4.00
2008,04,26,04,10,3.90
2008,04,26,04,11,3.90
2008,04,26,04,12,3.90
2008,04,26,04,13,3.80
2008,04,26,04,14,3.80
2008,04,26,04,15,3.80
2008,04,26,04,16,3.80
2008,04,26,04,17,3.80
2008,04,26,04,18,3.80
2008,04,26,04,19,3.80
2008,04,26,04,20,3.80
2008,04,26,04,21,3.80
2008,04,26,04,22,3.80
2008,04,26,04,23,3.80
2008,04,26,04,24,3.80
2008,04,26,04,25,3.80
2008,04,26,04,26,3.80
2008,04,26,04,27,3.80
2008,04,26,04,28,3.80
2008,04,26,04,29,3.80
2008,04,26,04,30,3.80
2008,04,26,04,31,3.80
2008,04,26,04,32,3.80
2008,04,26,04,33,3.80
2008,04,26,04,34,3.80
2008,04,26,04,35,3.80
2008,04,26,04,36,3.80
2008,04,26,04,37,3.70
2008,04,26,04,38,3.70
2008,04,26,04,39,3.70
2008,04,26,04,40,3.60
2008,04,26,04,41,3.60
2008,04,26,04,42,3.60
2008,04,26,04,43,3.60
2008,04,26,04,44,3.50
2008,04,26,04,45,3.50
2008,04,26,04,46,3.50
2008,04,26,04,47,3.50
2008,04,26,04,48,3.50
2008,04,26,04,49,3.50
2008,04,26,04,50,3.50
2008,04,26,04,51,3.50
2008,04,26,04,52,3.40
2008,04,26,04,53,3.40
2008,04,26,04,54,3.40
2008,04,26,04,55,3.40
2008,04,26,04,56,3.40
2008,04,26,04,57,3.40
2008,04,26,04,58,3.40
2008,04,26,04,59,3.40
2008,04,26,05,00,3.40
2008,04,26,05,01,3.40
2008,04,26,05,02,3.40
2008,04,26,05,03,3.40
2008,04,26,05,04,3.40
2008,04,26,05,05,3.40
2008,04,26,05,06,3.50
2008,04,26,05,07,3.50
2008,04,26,05,08,3.50
2008,04,26,05,09,3.50
2008,04,26,05,10,3.50
2008,04,26,05,11,3.50
2008,04,26,05,12,3.50
2008,04,26,05,13,3.50
2008,04,26,05,14,3.50
2008,04,26,05,15,3.60
2008,04,26,05,16,3.60
2008,04,26,05,17,3.70
2008,04,26,05,18,3.70
2008,04,26,05,19,3.80
2008,04,26,05,20,3.80
2008,04,26,05,21,3.80
2008,04,26,05,22,3.80
2008,04,26,05,23,3.80
2008,04,26,05,24,3.80
2008,04,26,05,25,3.80
2008,04,26,05,26,3.80
2008,04,26,05,27,3.80
2008,04,26,05,28,3.80
2008,04,26,05,29,3.80
2008,04,26,05,30,3.80
2008,04,26,05,31,3.80
2008,04,26,05,32,3.80
2008,04,26,05,33,3.80
2008,04,26,05,34,3.90
2008,04,26,05,35,3.90
2008,04,26,05,36,3.90
2008,04,26,05,37,3.90
2008,04,26,05,38,3.90
2008,04,26,05,39,3.80
2008,04,26,05,40,3.80
2008,04,26,05,41,3.80
2008,04,26,05,42,3.80
2008,04,26,05,43,3.80
2008,04,26,05,44,3.80
2008,04,26,05,45,3.80
2008,04,26,05,46,3.80
2008,04,26,05,47,3.80
2008,04,26,05,48,3.80
2008,04,26,05,49,3.80
2008,04,26,05,50,3.80
2008,04,26,05,51,3.80
2008,04,26,05,52,3.80
2008,04,26,05,53,3.80
2008,04,26,05,54,3.80
2008,04,26,05,55,3.80
2008,04,26,05,56,3.80
2008,04,26,05,57,3.80
2008,04,26,05,58,3.80
2008,04,26,05,59,3.80
2008,04,26,06,00,3.80
2008,04,26,06,01,3.80
2008,04,26,06,02,3.80
2008,04,26,06,03,3.80
2008,04,26,06,04,3.80
2008,04,26,06,05,3.80
2008,04,26,06,06,3.80
2008,04,26,06,07,3.80
2008,04,26,06,08,3.80
2008,04,26,06,09,3.80
2008,04,26,06,10,3.80
2008,04,26,06,11,3.80
2008,04,26,06,12,3.90
2008,04,26,06,13,3.90
2008,04,26,06,14,3.90
2008,04,26,06,15,3.90
2008,04,26,06,16,4.00
2008,04,26,06,17,4.00
2008,04,26,06,18,4.00
2008,04,26,06,19,4.00
2008,04,26,06,20,4.00
2008,04,26,06,21,4.00
2008,04,26,06,22,4.10
2008,04,26,06,23,4.10
2008,04,26,06,24,4.10
2008,04,26,06,25,4.10
2008,04,26,06,26,4.10
2008,04,26,06,27,4.10
2008,04,26,06,28,4.10
2008,04,26,06,29,4.10
2008,04,26,06,30,4.10
2008,04,26,06,31,4.10
2008,04,26,06,32,4.10
2008,04,26,06,33,4.00
2008,04,26,06,34,4.00
2008,04,26,06,35,4.00
2008,04,26,06,36,4.00
2008,04,26,06,37,4.00
2008,04,26,06,38,4.00
2008,04,26,06,39,4.00
2008,04,26,06,40,4.00
2008,04,26,06,41,4.00
2008,04,26,06,42,4.00
2008,04,26,06,43,4.00
2008,04,26,06,44,4.00
2008,04,26,06,45,4.10
2008,04,26,06,46,4.10
2008,04,26,06,47,4.10
2008,04,26,06,48,4.10
2008,04,26,06,49,4.20
2008,04,26,06,50,4.20
2008,04,26,06,51,4.20
2008,04,26,06,52,4.20
2008,04,26,06,53,4.20
2008,04,26,06,54,4.20
2008,04,26,06,55,4.30
2008,04,26,06,56,4.30
2008,04,26,06,57,4.30
2008,04,26,06,58,4.40
2008,04,26,06,59,4.40
2008,04,26,07,00,4.40
2008,04,26,07,01,4.50
2008,04,26,07,02,4.50
2008,04,26,07,03,4.60
2008,04,26,07,04,4.60
2008,04,26,07,05,4.60
2008,04,26,07,06,4.70
2008,04,26,07,07,4.70
2008,04,26,07,08,4.80
2008,04,26,07,09,4.90
2008,04,26,07,10,4.90
2008,04,26,07,11,5.00
2008,04,26,07,12,5.10
2008,04,26,07,13,5.10
2008,04,26,07,14,5.10
2008,04,26,07,15,5.20
2008,04,26,07,16,5.20
2008,04,26,07,17,5.30
2008,04,26,07,18,5.30
2008,04,26,07,19,5.30
2008,04,26,07,20,5.30
2008,04,26,07,21,5.30
2008,04,26,07,22,5.40
2008,04,26,07,23,5.40
2008,04,26,07,24,5.50
2008,04,26,07,25,5.50
2008,04,26,07,26,5.50
2008,04,26,07,27,5.60
2008,04,26,07,28,5.60
2008,04,26,07,29,5.70
2008,04,26,07,30,5.70
2008,04,26,07,31,5.70
2008,04,26,07,32,5.70
2008,04,26,07,33,5.80
2008,04,26,07,34,5.80
2008,04,26,07,35,5.90
2008,04,26,07,36,5.90
2008,04,26,07,37,6.00
2008,04,26,07,38,6.00
2008,04,26,07,39,6.00
2008,04,26,07,40,6.10
2008,04,26,07,41,6.10
2008,04,26,07,42,6.20
2008,04,26,07,43,6.20
2008,04,26,07,44,6.20
2008,04,26,07,45,6.20
2008,04,26,07,46,6.20
2008,04,26,07,47,6.30
2008,04,26,07,48,6.30
2008,04,26,07,49,6.40
2008,04,26,07,50,6.40
2008,04,26,07,51,6.40
2008,04,26,07,52,6.50
2008,04,26,07,53,6.60
2008,04,26,07,54,6.60
2008,04,26,07,55,6.70
2008,04,26,07,56,6.70
2008,04,26,07,57,6.80
2008,04,26,07,58,6.80
2008,04,26,07,59,6.80
2008,04,26,08,00,6.90
2008,04,26,08,01,6.90
2008,04,26,08,02,7.00
2008,04,26,08,03,7.00
2008,04,26,08,04,7.10
2008,04,26,08,05,7.10
2008,04,26,08,06,7.10
2008,04,26,08,07,7.20
2008,04,26,08,08,7.20
2008,04,26,08,09,7.20
2008,04,26,08,10,7.20
2008,04,26,08,11,7.30
2008,04,26,08,12,7.30
2008,04,26,08,13,7.30
2008,04,26,08,14,7.30
2008,04,26,08,15,7.30
2008,04,26,08,16,7.30
2008,04,26,08,17,7.30
2008,04,26,08,18,7.40
2008,04,26,08,19,7.40
2008,04,26,08,20,7.50
2008,04,26,08,21,7.60
2008,04,26,08,22,7.60
2008,04,26,08,23,7.60
2008,04,26,08,24,7.70
2008,04,26,08,25,7.70
2008,04,26,08,26,7.70
2008,04,26,08,27,7.80
2008,04,26,08,28,7.80
2008,04,26,08,29,7.80
2008,04,26,08,30,7.90
2008,04,26,08,31,7.90
2008,04,26,08,32,7.90
2008,04,26,08,33,8.00
2008,04,26,08,34,8.10
2008,04,26,08,35,8.10
2008,04,26,08,36,8.10
2008,04,26,08,37,8.10
2008,04,26,08,38,8.00
2008,04,26,08,39,8.00
2008,04,26,08,40,8.00
2008,04,26,08,41,8.00
2008,04,26,08,42,8.00
2008,04,26,08,43,8.10
2008,04,26,08,44,8.10
2008,04,26,08,45,8.10
2008,04,26,08,46,8.20
2008,04,26,08,47,8.20
2008,04,26,08,48,8.20
2008,04,26,08,49,8.20
2008,04,26,08,50,8.30
2008,04,26,08,51,8.20
2008,04,26,08,52,8.30
2008,04,26,08,53,8.30
2008,04,26,08,54,8.30
2008,04,26,08,55,8.30
2008,04,26,08,56,8.40
2008,04,26,08,57,8.40
2008,04,26,08,58,8.50
2008,04,26,08,59,8.50
2008,04,26,09,00,8.60
2008,04,26,09,01,8.60
2008,04,26,09,02,8.60
2008,04,26,09,03,8.60
2008,04,26,09,04,8.60
2008,04,26,09,05,8.70
2008,04,26,09,06,8.60
2008,04,26,09,07,8.70
2008,04,26,09,08,8.70
2008,04,26,09,09,8.60
2008,04,26,09,10,8.60
2008,04,26,09,11,8.50
2008,04,26,09,12,8.40
2008,04,26,09,13,8.30
2008,04,26,09,14,8.30
2008,04,26,09,15,8.30
2008,04,26,09,16,8.30
2008,04,26,09,17,8.20
2008,04,26,09,18,8.30
2008,04,26,09,19,8.40
2008,04,26,09,20,8.40
2008,04,26,09,21,8.50
2008,04,26,09,22,8.50
2008,04,26,09,23,8.50
2008,04,26,09,24,8.50
2008,04,26,09,25,8.60
2008,04,26,09,26,8.60
2008,04,26,09,27,8.70
2008,04,26,09,28,8.70
2008,04,26,09,29,8.70
2008,04,26,09,30,8.70
2008,04,26,09,31,8.70
2008,04,26,09,32,8.70
2008,04,26,09,33,8.70
2008,04,26,09,34,8.70
2008,04,26,09,35,8.80
2008,04,26,09,36,8.80
2008,04,26,09,37,8.90
2008,04,26,09,38,8.90
2008,04,26,09,39,8.90
2008,04,26,09,40,8.90
2008,04,26,09,41,8.90
2008,04,26,09,42,8.90
2008,04,26,09,43,8.90
2008,04,26,09,44,8.80
2008,04,26,09,45,8.70
2008,04,26,09,46,8.70
2008,04,26,09,47,8.70
2008,04,26,09,48,8.70
2008,04,26,09,49,8.70
2008,04,26,09,50,8.70
2008,04,26,09,51,8.70
2008,04,26,09,52,8.70
2008,04,26,09,53,8.70
2008,04,26,09,54,8.80
2008,04,26,09,55,8.80
2008,04,26,09,56,8.90
2008,04,26,09,57,8.90
2008,04,26,09,58,9.00
2008,04,26,09,59,9.00
2008,04,26,10,00,9.00
2008,04,26,10,01,9.00
2008,04,26,10,02,9.00
2008,04,26,10,03,9.10
2008,04,26,10,04,9.10
2008,04,26,10,05,9.10
2008,04,26,10,06,9.10
2008,04,26,10,07,9.10
2008,04,26,10,08,9.10
2008,04,26,10,09,9.10
2008,04,26,10,10,9.00
2008,04,26,10,11,9.10
2008,04,26,10,12,9.10
2008,04,26,10,13,9.10
2008,04,26,10,14,9.20
2008,04,26,10,15,9.20
2008,04,26,10,16,9.20
2008,04,26,10,17,9.20
2008,04,26,10,18,9.20
2008,04,26,10,19,9.20
2008,04,26,10,20,9.30
2008,04,26,10,21,9.30
2008,04,26,10,22,9.40
2008,04,26,10,23,9.40
2008,04,26,10,24,9.40
2008,04,26,10,25,9.40
2008,04,26,10,26,9.50
2008,04,26,10,27,9.50
2008,04,26,10,28,9.50
2008,04,26,10,29,9.50
2008,04,26,10,30,9.50
2008,04,26,10,31,9.50
2008,04,26,10,32,9.50
2008,04,26,10,33,9.50
2008,04,26,10,34,9.50
2008,04,26,10,35,9.60
2008,04,26,10,36,9.70
2008,04,26,10,37,9.70
2008,04,26,10,38,9.70
2008,04,26,10,39,9.70
2008,04,26,10,40,9.70
2008,04,26,10,41,9.80
2008,04,26,10,42,9.80
2008,04,26,10,43,9.80
2008,04,26,10,44,9.90
2008,04,26,10,45,9.90
2008,04,26,10,46,9.90
2008,04,26,10,47,9.90
2008,04,26,10,48,10.00
2008,04,26,10,49,10.10
2008,04,26,10,50,10.20
2008,04,26,10,51,10.20
2008,04,26,10,52,10.30
2008,04,26,10,53,10.30
2008,04,26,10,54,10.40
2008,04,26,10,55,10.40
2008,04,26,10,56,10.40
2008,04,26,10,57,10.40
2008,04,26,10,58,10.40
2008,04,26,10,59,10.40
2008,04,26,11,00,10.40
2008,04,26,11,01,10.40
2008,04,26,11,02,10.30
2008,04,26,11,03,10.30
2008,04,26,11,04,10.30
2008,04,26,11,05,10.40
2008,04,26,11,06,10.40
2008,04,26,11,07,10.40
2008,04,26,11,08,10.50
2008,04,26,11,09,10.60
2008,04,26,11,10,10.60
2008,04,26,11,11,10.70
2008,04,26,11,12,10.70
2008,04,26,11,13,10.70
2008,04,26,11,14,10.70
2008,04,26,11,15,10.80
2008,04,26,11,16,10.90
2008,04,26,11,17,10.90
2008,04,26,11,18,11.00
2008,04,26,11,19,11.10
2008,04,26,11,20,11.10
2008,04,26,11,21,11.10
2008,04,26,11,22,11.10
2008,04,26,11,23,11.10
2008,04,26,11,24,11.20
2008,04,26,11,25,11.20
2008,04,26,11,26,11.30
2008,04,26,11,27,11.30
2008,04,26,11,28,11.40
2008,04,26,11,29,11.40
2008,04,26,11,30,11.40
2008,04,26,11,31,11.40
2008,04,26,11,32,11.30
2008,04,26,11,33,11.30
2008,04,26,11,34,11.30
2008,04,26,11,35,11.40
2008,04,26,11,36,11.40
2008,04,26,11,37,11.30
2008,04,26,11,38,11.20
2008,04,26,11,39,11.20
2008,04,26,11,40,11.20
2008,04,26,11,41,11.20
2008,04,26,11,42,11.30
2008,04,26,11,43,11.20
2008,04,26,11,44,11.20
2008,04,26,11,45,11.10
2008,04,26,11,46,11.20
2008,04,26,11,47,11.20
2008,04,26,11,48,11.30
2008,04,26,11,49,11.30
2008,04,26,11,50,11.30
2008,04,26,11,51,11.40
2008,04,26,11,52,11.40
2008,04,26,11,53,11.60
2008,04,26,11,54,11.60
2008,04,26,11,55,11.60
2008,04,26,11,56,11.60
2008,04,26,11,57,11.60
2008,04,26,11,58,11.70
2008,04,26,11,59,11.80
2008,04,26,12,00,11.90
2008,04,26,12,01,12.00
2008,04,26,12,02,12.00
2008,04,26,12,03,12.10
2008,04,26,12,04,12.20
2008,04,26,12,05,12.30
2008,04,26,12,06,12.30
2008,04,26,12,07,12.30
2008,04,26,12,08,12.30
2008,04,26,12,09,12.30
2008,04,26,12,10,12.40
2008,04,26,12,11,12.40
2008,04,26,12,12,12.30
2008,04,26,12,13,12.30
2008,04,26,12,14,12.30
2008,04,26,12,15,12.40
2008,04,26,12,16,12.50
2008,04,26,12,17,12.50
2008,04,26,12,18,12.60
2008,04,26,12,19,12.60
2008,04,26,12,20,12.60
2008,04,26,12,21,12.60
2008,04,26,12,22,12.70
2008,04,26,12,23,12.70
2008,04,26,12,24,12.70
2008,04,26,12,25,12.70
2008,04,26,12,26,12.80
2008,04,26,12,27,12.80
2008,04,26,12,28,12.80
2008,04,26,12,29,12.80
2008,04,26,12,30,12.80
2008,04,26,12,31,12.80
2008,04,26,12,32,12.80
2008,04,26,12,33,12.90
2008,04,26,12,34,13.00
2008,04,26,12,35,13.00
2008,04,26,12,36,13.00
2008,04,26,12,37,13.00
2008,04,26,12,38,13.00
2008,04,26,12,39,13.10
2008,04,26,12,40,13.10
2008,04,26,12,41,13.10
2008,04,26,12,42,13.10
2008,04,26,12,43,13.20
2008,04,26,12,44,13.10
2008,04,26,12,45,13.10
2008,04,26,12,46,13.10
2008,04,26,12,47,13.00
2008,04,26,12,48,13.00
2008,04,26,12,49,13.00
2008,04,26,12,50,13.00
2008,04,26,12,51,13.10
2008,04,26,12,52,13.10
2008,04,26,12,53,13.10
2008,04,26,12,54,13.10
2008,04,26,12,55,13.10
2008,04,26,12,56,13.00
2008,04,26,12,57,12.90
2008,04,26,12,58,12.80
2008,04,26,12,59,12.80
2008,04,26,13,00,12.80
2008,04,26,13,01,12.90
2008,04,26,13,02,13.00
2008,04,26,13,03,13.00
2008,04,26,13,04,13.00
2008,04,26,13,05,13.10
2008,04,26,13,06,13.10
2008,04,26,13,07,13.10
2008,04,26,13,08,13.10
2008,04,26,13,09,13.20
2008,04,26,13,10,13.20
2008,04,26,13,11,13.20
2008,04,26,13,12,13.20
2008,04,26,13,13,13.20
2008,04,26,13,14,13.20
2008,04,26,13,15,13.30
2008,04,26,13,16,13.30
2008,04,26,13,17,13.30
2008,04,26,13,18,13.30
2008,04,26,13,19,13.30
2008,04,26,13,20,13.30
2008,04,26,13,21,13.30
2008,04,26,13,22,13.40
2008,04,26,13,23,13.40
2008,04,26,13,24,13.40
2008,04,26,13,25,13.20
2008,04,26,13,26,13.20
2008,04,26,13,27,13.20
2008,04,26,13,28,13.10
2008,04,26,13,29,13.10
2008,04,26,13,30,13.20
2008,04,26,13,31,13.20
2008,04,26,13,32,13.30
2008,04,26,13,33,13.30
2008,04,26,13,34,13.30
2008,04,26,13,35,13.40
2008,04,26,13,36,13.50
2008,04,26,13,37,13.60
2008,04,26,13,38,13.60
2008,04,26,13,39,13.70
2008,04,26,13,40,13.70
2008,04,26,13,41,13.70
2008,04,26,13,42,13.70
2008,04,26,13,43,13.60
2008,04,26,13,44,13.50
2008,04,26,13,45,13.50
2008,04,26,13,46,13.40
2008,04,26,13,47,13.30
2008,04,26,13,48,13.30
2008,04,26,13,49,13.30
2008,04,26,13,50,13.30
2008,04,26,13,51,13.30
2008,04,26,13,52,13.30
2008,04,26,13,53,13.30
2008,04,26,13,54,13.30
2008,04,26,13,55,13.30
2008,04,26,13,56,13.40
2008,04,26,13,57,13.50
2008,04,26,13,58,13.60
2008,04,26,13,59,13.70
2008,04,26,14,00,13.70
2008,04,26,14,01,13.70
2008,04,26,14,02,13.70
2008,04,26,14,03,13.70
2008,04,26,14,04,13.70
2008,04,26,14,05,13.70
2008,04,26,14,06,13.70
2008,04,26,14,07,13.70
2008,04,26,14,08,13.70
2008,04,26,14,09,13.70
2008,04,26,14,10,13.70
2008,04,26,14,11,13.70
2008,04,26,14,12,13.70
2008,04,26,14,13,13.70
2008,04,26,14,14,13.80
2008,04,26,14,15,13.80
2008,04,26,14,16,13.80
2008,04,26,14,17,13.90
2008,04,26,14,18,13.90
2008,04,26,14,19,13.90
2008,04,26,14,20,13.90
2008,04,26,14,21,14.00
2008,04,26,14,22,14.00
2008,04,26,14,23,13.90
2008,04,26,14,24,13.90
2008,04,26,14,25,13.90
2008,04,26,14,26,14.00
2008,04,26,14,27,14.00
2008,04,26,14,28,14.00
2008,04,26,14,29,14.10
2008,04,26,14,30,14.10
2008,04,26,14,31,14.10
2008,04,26,14,32,14.10
2008,04,26,14,33,14.20
2008,04,26,14,34,14.20
2008,04,26,14,35,14.10
2008,04,26,14,36,14.20
2008,04,26,14,37,14.20
2008,04,26,14,38,14.20
2008,04,26,14,39,14.20
2008,04,26,14,40,14.30
2008,04,26,14,41,14.40
2008,04,26,14,42,14.50
2008,04,26,14,43,14.60
2008,04,26,14,44,14.70
2008,04,26,14,45,14.80
2008,04,26,14,46,14.80
2008,04,26,14,47,14.90
2008,04,26,14,48,14.90
2008,04,26,14,49,14.90
2008,04,26,14,50,14.90
2008,04,26,14,51,14.90
2008,04,26,14,52,14.90
2008,04,26,14,53,14.80
2008,04,26,14,54,14.80
2008,04,26,14,55,14.80
2008,04,26,14,56,14.80
2008,04,26,14,57,14.80
2008,04,26,14,58,14.90
2008,04,26,14,59,14.90
2008,04,26,15,00,15.00
2008,04,26,15,01,15.10
2008,04,26,15,02,15.10
2008,04,26,15,03,15.10
2008,04,26,15,04,15.00
2008,04,26,15,05,15.00
2008,04,26,15,06,15.00
2008,04,26,15,07,15.00
2008,04,26,15,08,15.00
2008,04,26,15,09,14.90
2008,04,26,15,10,14.80
2008,04,26,15,11,14.80
2008,04,26,15,12,14.80
2008,04,26,15,13,14.80
2008,04,26,15,14,14.80
2008,04,26,15,15,14.80
2008,04,26,15,16,14.80
2008,04,26,15,17,14.90
2008,04,26,15,18,15.00
2008,04,26,15,19,15.10
2008,04,26,15,20,15.10
2008,04,26,15,21,15.20
2008,04,26,15,22,15.30
2008,04,26,15,23,15.40
2008,04,26,15,24,15.40
2008,04,26,15,25,15.50
2008,04,26,15,26,15.60
2008,04,26,15,27,15.60
2008,04,26,15,28,15.70
2008,04,26,15,29,15.60
2008,04,26,15,30,15.50
2008,04,26,15,31,15.30
2008,04,26,15,32,15.10
2008,04,26,15,33,15.00
2008,04,26,15,34,15.00
2008,04,26,15,35,15.00
2008,04,26,15,36,15.00
2008,04,26,15,37,14.90
2008,04,26,15,38,14.80
2008,04,26,15,39,14.70
2008,04,26,15,40,14.70
2008,04,26,15,41,14.60
2008,04,26,15,42,14.60
2008,04,26,15,43,14.50
2008,04,26,15,44,14.40
2008,04,26,15,45,14.40
2008,04,26,15,46,14.40
2008,04,26,15,47,14.40
2008,04,26,15,48,14.40
2008,04,26,15,49,14.40
2008,04,26,15,50,14.40
2008,04,26,15,51,14.50
2008,04,26,15,52,14.50
2008,04,26,15,53,14.60
2008,04,26,15,54,14.60
2008,04,26,15,55,14.70
2008,04,26,15,56,14.80
2008,04,26,15,57,14.80
2008,04,26,15,58,14.90
2008,04,26,15,59,14.90
2008,04,26,16,00,15.00
2008,04,26,16,01,15.00
2008,04,26,16,02,15.10
2008,04,26,16,03,15.20
2008,04,26,16,04,15.20
2008,04,26,16,05,15.30
2008,04,26,16,06,15.30
2008,04,26,16,07,15.40
2008,04,26,16,08,15.50
2008,04,26,16,09,15.50
2008,04,26,16,10,15.60
2008,04,26,16,11,15.60
2008,04,26,16,12,15.70
2008,04,26,16,13,15.70
2008,04,26,16,14,15.80
2008,04,26,16,15,15.80
2008,04,26,16,16,15.80
2008,04,26,16,17,15.80
2008,04,26,16,18,15.90
2008,04,26,16,19,15.80
2008,04,26,16,20,15.80
2008,04,26,16,21,15.70
2008,04,26,16,22,15.70
2008,04,26,16,23,15.70
2008,04,26,16,24,15.70
2008,04,26,16,25,15.80
2008,04,26,16,26,15.80
2008,04,26,16,27,15.80
2008,04,26,16,28,15.80
2008,04,26,16,29,15.80
2008,04,26,16,30,15.90
2008,04,26,16,31,15.90
2008,04,26,16,32,15.90
2008,04,26,16,33,15.90
2008,04,26,16,34,15.90
2008,04,26,16,35,16.10
2008,04,26,16,36,16.10
2008,04,26,16,37,16.10
2008,04,26,16,38,16.10
2008,04,26,16,39,16.10
2008,04,26,16,40,16.20
2008,04,26,16,41,16.20
2008,04,26,16,42,16.20
2008,04,26,16,43,16.20
2008,04,26,16,44,16.20
2008,04,26,16,45,16.10
2008,04,26,16,46,16.10
2008,04,26,16,47,16.10
2008,04,26,16,48,16.10
2008,04,26,16,49,16.10
2008,04,26,16,50,16.10
2008,04,26,16,51,15.90
2008,04,26,16,52,15.80
2008,04,26,16,53,15.70
2008,04,26,16,54,15.60
2008,04,26,16,55,15.50
2008,04,26,16,56,15.40
2008,04,26,16,57,15.30
2008,04,26,16,58,15.30
2008,04,26,16,59,15.30
2008,04,26,17,00,15.30
2008,04,26,17,01,15.30
2008,04,26,17,02,15.30
2008,04,26,17,03,15.30
2008,04,26,17,04,15.30
2008,04,26,17,05,15.30
2008,04,26,17,06,15.30
2008,04,26,17,07,15.30
2008,04,26,17,08,15.40
2008,04,26,17,09,15.40
2008,04,26,17,10,15.40
2008,04,26,17,11,15.40
2008,04,26,17,12,15.40
2008,04,26,17,13,15.30
2008,04,26,17,14,15.30
2008,04,26,17,15,15.30
2008,04,26,17,16,15.30
2008,04,26,17,17,15.30
2008,04,26,17,18,15.20
2008,04,26,17,19,15.20
2008,04,26,17,20,15.10
2008,04,26,17,21,15.10
2008,04,26,17,22,15.10
2008,04,26,17,23,15.00
2008,04,26,17,24,15.00
2008,04,26,17,25,14.90
2008,04,26,17,26,14.90
2008,04,26,17,27,14.90
2008,04,26,17,28,14.90
2008,04,26,17,29,14.90
2008,04,26,17,30,14.80
2008,04,26,17,31,14.80
2008,04,26,17,32,14.80
2008,04,26,17,33,14.70
2008,04,26,17,34,14.70
2008,04,26,17,35,14.60
2008,04,26,17,36,14.60
2008,04,26,17,37,14.60
2008,04,26,17,38,14.50
2008,04,26,17,39,14.50
2008,04,26,17,40,14.40
2008,04,26,17,41,14.40
2008,04,26,17,42,14.30
2008,04,26,17,43,14.30
2008,04,26,17,44,14.20
2008,04,26,17,45,14.20
2008,04,26,17,46,14.20
2008,04,26,17,47,14.20